This is the latest recevied weather packets stored in our database for station/object KN6WGU. If no packets are shown the sender has not sent any weather packets the latest 10 day(s).
| Time | Temp. | Humidity | Pressure | Rain* | Wind** | Luminosity | Snow |
|---|---|---|---|---|---|---|---|
| 1788570368 | 22.78° C | 97% | 1007.8 hPa | 0 mm | - | 0 W/m² | - |
| 1788570064 | 22.78° C | 96% | 1007.7 hPa | 0 mm | - | 0 W/m² | - |
| 1788569760 | 22.78° C | 96% | 1007.8 hPa | 0 mm | - | 0 W/m² | - |
| 1788569456 | 22.78° C | 96% | 1007.7 hPa | 0 mm | - | 0 W/m² | - |
| 1788569155 | 22.78° C | 95% | 1007.7 hPa | 0 mm | - | 0 W/m² | - |
| 1788568855 | 22.78° C | 95% | 1007.8 hPa | 0 mm | - | 0 W/m² | - |
| 1788568547 | 22.78° C | 95% | 1007.6 hPa | 0 mm | - | 0 W/m² | - |
| 1788568242 | 22.78° C | 94% | 1007.7 hPa | 0 mm | - | 0 W/m² | - |
| 1788567932 | 23.33° C | 94% | 1007.6 hPa | 0 mm | - | 0 W/m² | - |
| 1788567631 | 23.33° C | 94% | 1007.6 hPa | 0 mm | - | 0 W/m² | - |
| 1788567327 | 23.33° C | 93% | 1007.7 hPa | 0 mm | - | 0 W/m² | - |
| 1788567020 | 23.33° C | 92% | 1007.6 hPa | 0 mm | - | 0 W/m² | - |
| 1788566716 | 23.89° C | 92% | 1007.7 hPa | 0 mm | - | 1 W/m² | - |
| 1788566412 | 23.89° C | 91% | 1007.7 hPa | 0 mm | - | 1 W/m² | - |
| 1788566107 | 23.89° C | 90% | 1007.7 hPa | 0 mm | - | 3 W/m² | - |
| 1788565801 | 23.89° C | 89% | 1007.6 hPa | 0 mm | - | 4 W/m² | - |
| 1788565495 | 24.44° C | 89% | 1007.6 hPa | 0 mm | - | 7 W/m² | - |
| 1788565191 | 24.44° C | 88% | 1007.9 hPa | 0 mm | - | 9 W/m² | - |
| 1788564886 | 24.44° C | 88% | 1007.7 hPa | 0 mm | - | 12 W/m² | - |
| 1788564583 | 24.44° C | 87% | 1007.7 hPa | 0 mm | - | 19 W/m² | - |
| 1788564278 | 25° C | 87% | 1007.6 hPa | 0 mm | - | 22 W/m² | - |
| 1788563975 | 25° C | 88% | 1007.8 hPa | 0 mm | - | 28 W/m² | - |
| 1788563670 | 25° C | 88% | 1007.8 hPa | 0 mm | - | 30 W/m² | - |
| 1788563365 | 25° C | 87% | 1007.6 hPa | 0 mm | - | 33 W/m² | - |
| 1788563064 | 25° C | 87% | 1007.7 hPa | 0 mm | - | 37 W/m² | - |
* Rain latest hour (hover to see other rain measurements)
** Current wind speed in m/s (hover to see current wind gust speed)